Regional Weather Roundup
Issued by NWS Wakefield, VA

Home | Current Version | Previous Version | Text Only | Print | Product List | Glossary On
Versions: 1 2 3 4 5 6 7 8 9 10 11 12 13 14 15 16 17 18 19 20 21 22 23 24 25 26 27
000
ASUS41 KAKQ 280715
RWRAKQ

REGIONAL WEATHER ROUNDUP
NATIONAL WEATHER SERVICE WAKEFIELD VA
300 AM EDT FRI JUL 28 2017

Note: "fair" indicates few or no clouds below 12,000 feet with no
significant weather and/or obstructions to visibility. * = Denotes
station may not report precipitation (e.g., rain,snow,etc.),
thunder or fog.

VAZ042-051-052>054-056-280800-
NORTHERN VIRGINIA

CITY           SKY/WX    TMP DP  RH WIND       PRES   REMARKS
WASH NATIONAL  PTCLDY    79  74  84 NW8       29.82F
DULLES         CLEAR     74  69  85 NW5       29.83F
FORT BELVOIR   CLEAR     73  71  93 CALM      29.81F
QUANTICO       CLEAR     75  72  90 W5        29.83F
FREDERICKSBRG* CLEAR     72  72 100 CALM      29.83S
STAFFORD*      CLEAR     70  70 100 CALM      29.88S
WARRENTON      FOG       72  69  91 SW3       29.84F VSB 1
CULPEPER*      FOG       71  71 100 CALM      29.86S VSB 1/4
MANASSAS*      CLEAR     72  70  93 W3        29.84S
LEESBURG*      CLEAR     72  72 100 NW3       29.85S
WINCHESTER     CLEAR     64  64 100 CALM      29.87S FOG
FRONT ROYAL*   SUNNY     68  68 100 CALM      29.86F
LURAY*         CLOUDY    68  68 100 CALM      29.87F FOG
$$

VAZ048-049-060>072-079>083-280800-
CENTRAL AND SOUTH CENTRAL VIRGINIA

CITY           SKY/WX    TMP DP  RH WIND       PRES   REMARKS
RICHMOND       CLOUDY    73  70  90 S6        29.85F
CHESTERFIELD*  CLOUDY    74  69  85 CALM      29.86F
PETERSBURG*    CLOUDY    72  70  95 CALM      29.87S
HANOVER        CLOUDY    74  68  81 SW5       29.85F
TAPPAHANNOCK*  MOCLDY    74  64  69 SW5       29.84S
QUINTON*       CLOUDY    75  71  88 SW5       29.84F
CHARLOTTSVILLE CLOUDY    75  72  90 CALM      29.85F
GORDONSVILLE*  CLOUDY    71  71 100 CALM      29.85S
ORANGE*        CLOUDY    70  70 100 CALM      29.85S
LOUISA*        CLOUDY    70  68  94 CALM      29.85F
BUMPASS*       CLOUDY    70  70 100 CALM      29.84F
FARMVILLE*     CLOUDY    73  70  93 CALM      29.86S
CREWE*         FAIR      74  70  87 CALM      29.86S
FORT PICKETT*  FAIR     N/A N/A N/A S7        29.87S
CHASE CITY*    PTSUNNY   72  72  99 CALM      29.87F
CLARKSVILLE*   CLOUDY    72  72 100 CALM      29.87F
SOUTH HILL*    CLOUDY    73  72  98 S3        29.92F
LAWRENCEVILLE* PTSUNNY   72  71  97 CALM      29.87F
EMPORIA*       MOCLDY    73  72  94 CALM      29.88F
$$

VAZ088>098-280800-
SOUTHEAST VIRGINIA

CITY           SKY/WX    TMP DP  RH WIND       PRES   REMARKS
NORFOLK        RAIN      74  73  97 SW3       29.87S FOG
VIRGINIA BEACH LGT RAIN  74  70  87 NW6       29.87R
NORFOLK NAVAL  LGT RAIN  74  71  91 CALM      29.87F FOG
WEST POINT*    CLOUDY    77  70  78 S6        29.85F
SALUDA*        CLOUDY    77  74  91 S6        29.84F
NEWPORT NEWS   CLOUDY    76  72  87 SW7       29.85F
LANGLEY AFB    CLOUDY    73  73 100 S9        29.85F
FORT EUSTIS    CLOUDY    76  73  88 S3        29.83F
WILLIAMSBURG*  CLOUDY    77  73  88 CALM      29.86F
HR EXEC AP*    FAIR      73  68  83 CALM      29.85F
FRANKLIN*      CLOUDY    73  70  88 CALM      29.87F
US460-WAKEFLD  CLOUDY    74  74 100 CALM      29.86F FOG
$$

VAZ020-022-025-037-045-280800-
WEST CENTRAL AND SOUTHWEST VIRGINIA

CITY           SKY/WX    TMP DP  RH WIND       PRES   REMARKS
STAUNTON*      CLOUDY    70  68  95 CALM      29.91S
WAYNESBORO*    CLOUDY    72  68  88 W3        29.91S
HOT SPRINGS VA CLOUDY    64  61  88 W8        30.02F
LYNCHBURG      CLOUDY    70  70 100 S3        29.89F
DANVILLE       CLOUDY    71  71 100 SW3       29.88F FOG
SOUTH BOSTON*  FAIR      72  70  95 CALM      29.87S
MARTINSVILLE   CLOUDY    69  68  96 CALM      29.92F
ROANOKE        MOCLDY    73  70  90 CALM      29.92F
BLACKSBURG     CLOUDY    69  67  93 CALM      29.99S
DUBLIN*        CLOUDY    69  65  86 CALM      29.98S
MARION*        CLOUDY    69  66  88 W7        30.01F FOG
HILLSVILLE*    CLOUDY    68  64  86 CALM      29.98F
RICHLANDS*     CLOUDY    67  64  87 CALM      30.00S FOG
WISE*          CLOUDY    68  68 100 SW6       30.00F
ABINGDON*      CLOUDY    72  72 100 CALM      29.97F FOG
$$

MDZ021>025-VAZ099-100-280800-
SOUTHERN MARYLAND AND THE DELMARVA PENINSULA

CITY           SKY/WX    TMP DP  RH WIND       PRES   REMARKS
PATUXENT RIVER CLEAR     72  70  93 SW5       29.82R
BAY BRIDGE APT CLEAR     73  72  94 E3        29.81F
LEONARDTOWN    CLEAR     72  68  88 CALM      29.84S
DOVER          PTCLDY    72  72 100 N3        29.81F
GEORGETOWN     PTCLDY    73  70  90 S3        29.82F
EASTON         CLEAR     74  72  94 CALM      29.85F
CAMBRIDGE      CLEAR     72  70  94 S3        29.82S
SALISBURY      CLEAR     73  71  93 S6        29.82F
OCEAN CITY     MOCLDY    76  71  85 SW9       29.82F
WALLOPS ISLAND LGT RAIN  72  72 100 SE7       29.84F FOG
ACCOMACK*      CLOUDY    74  73  96 SE5       29.84F
$$

NCZ012>017-030>032-280800-
NORTH CENTRAL AND EASTERN NORTH CAROLINA

CITY           SKY/WX    TMP DP  RH WIND       PRES   REMARKS
ROANOKE RAPIDS FAIR      75  70  83 S8        29.87F
RALEIGH        CLOUDY    77  74  90 SW6       29.89F
ELIZABETH CITY CLOUDY    79  74  84 SW12G22   29.88F
AHOSKIE*         N/A     75  71  87 CALM      29.88S
EDENTON*       CLOUDY    80  74  82 SW12      29.90S
CURRITUCK*     LGT RAIN  79  72  80 SW7       29.88F
KILL DEVIL HLS CLOUDY    78  69  74 SW3       29.88F
MANTEO         CLOUDY    78  71  76 SW16      29.89F
CAPE HATTERAS  CLOUDY    80  73  79 SW13      29.91F
TARBORO*       NOT AVBL
GOLDSBORO      NOT AVBL
WASHINGTON     MOCLDY    76  73  90 SW6       29.90S
GREENVILLE     CLOUDY    77  73  88 SW7       29.92S
NEW BERN       CLOUDY    76  75  97 S6        29.91F
WILMINGTON     CLEAR     76  74  93 S6        29.91F
$$

VAZ048-280800-
ELSEWHERE

CITY           SKY/WX    TMP DP  RH WIND       PRES   REMARKS
HARRISBURG PA  CLOUDY    73  72  96 CALM      29.84F FOG
BALTIMORE      MOCLDY    75  72  90 CALM      29.81F
ANNAPOLIS      CLEAR     79  79 100 CALM      29.80F
ANDREWS AFB    CLEAR     71  70  96 SW3       29.81F
PHILADELPHIA   PTCLDY    72  70  93 CALM      29.83F
HENDERSON NC   CLOUDY    72  70  94 SW3       29.89S
GREENSBORO     CLOUDY    74  74 100 SW5       29.90F
ROCKY MOUNT    CLOUDY    75  73  93 S5        29.88F
$$

VAZ100-280800-
MARINE

STATION/POSITION TIME  TEMP    WIND        PRES    WAVE   SWELL
                       AIR SEA DIR/SP/G            HT/PER HT/PER
                 (UTC) (F)     (DEG/KT/KT) (MB)    (FT/S) (FT/S)
BRANDYWINE LGT   0648           80/  3/  3   N/A
CAPE MAY NJ      0648   73 76  110/  2/  3 1009.2F
LEWES DE         0648   75 74     CALM     1009.3F
15NM E FENWICK I 0650   76 76  230/ 10/ 12 1009.8F   3/ 5   3/ 5
OCEAN-CITY-INLET 0648   76 73  250/ 10/ 12 1010.0F
WACHAPREAGUE VA  0648   73 80   40/  4/  5 1010.6F
THOMAS POINT MD  0700   78 81  260/  3/  4   N/A
GOOSES REEF MD   0640   79     270/  8/ 10 1010.4F
COVE POINT MD    0648   77     270/  4/  5 1010.3R
SOLOMONS ISLAND  0648   77 83  240/  7/  8   N/A
BISHOPS HEAD MD  0648   81 80  250/  9/ 11 1009.8F
PINEY POINT MD   0642          270/  5/  6   N/A
CAMBRIDGE MD     0648   74 84              1010.4S
LEWISETTA VA     0648   78 83  220/  5/  7 1009.8F
RAPPAHANNOCK LGT 0642          220/ 18/ 20 1010.9F
STINGRAY PT      0650   80     250/  8/ 12 1010.5F
YORK RVR RNG VA  0648   76     230/ 16/ 18 1010.9F
YORKTOWN VA      0648   75 82  220/ 11/ 15 1010.3F
JAMESTOWN VA     0650          240/  4/  6   N/A
DOMINION TERM VA 0648   76     200/  6/  8 1011.0F
KIPTOPEKE VA     0642      78  230/ 20/ 23   N/A
CHES BAY BRIDGE  0648   74 74  250/  9/ 10 1011.2F
CAPE HENRY VA    0648   73     260/  7/  9   N/A
WILLOUBY STN VA  0648   74     220/  7/  8 1011.1F
S CRANEY ISL VA  0648   74     200/  1/  2 1011.2F
CAPE HENRY BUOY  0700      72                N/A     3/ 5
1ST LANDING BUOY 0650   74                 1011.2F
64NM E OF VA BCH 0650   78 77  220/ 16/ 19 1011.5F   4/ 5   2/ 8
DUCK PIER NC     0648   80 66  210/ 15/ 21 1011.2F
44100 DUCK FRF   0605      73                N/A     3/ 9
44056 DUCK FRF   0700      70                N/A     2/ 9
OREGON INLET NC  0648          200/ 20/ 23   N/A
HATTERAS NC      0648   80 80  200/  9/ 14 1012.6F
DIAMOND SHLS NC  0650   81 83  210/ 19/ 21 1012.7F   3/ 4   2/ 8
CAPE LOOKOUT NC  0700   80     190/ 12/ 14 1012.4F
$$




USA.gov is the U.S. government's official web portal to all federal, state and local government web resources and services.